Stations météo

réclame
Mon MeteoGroup
Putbus, Allemagne (10093): Température de l'air & dewpoint: 13.03.2019 03:00:00 - 19.03.2019 03:00:00 (CET)Putbus, Allemagne (10093): Température de l'air 5cm & Température de l'air -5cm: 13.03.2019 03:00:00 - 19.03.2019 03:00:00 (CET)Putbus, Allemagne (10093): Température de l'air -20cm & Température de l'air -100cm: 13.03.2019 03:00:00 - 19.03.2019 03:00:00 (CET)Putbus, Allemagne (10093): Vitesse du vent & gusts: 13.03.2019 03:00:00 - 19.03.2019 03:00:00 (CET)Putbus, Allemagne (10093): Direction du vent: 13.03.2019 03:00:00 - 19.03.2019 03:00:00 (CET)Putbus, Allemagne (10093): reduced air pressure: 13.03.2019 03:00:00 - 19.03.2019 03:00:00 (CET)Putbus, Allemagne (10093): visibility: 13.03.2019 03:00:00 - 19.03.2019 03:00:00 (CET)Putbus, Allemagne (10093): Ensoleillement: 13.03.2019 03:00:00 - 19.03.2019 03:00:00 (CET)Putbus, Allemagne (10093): Quantités de précipitations: 13.03.2019 03:00:00 - 19.03.2019 03:00:00 (CET)
Date & Time tt [°C] td [°C] tt 5cm [°C] tt -5cm [°C] tt -20cm [°C] tt -100cm [°C] ff [km/h] ff [knt] fx [km/h] fx [knt] dd ppp [hPa] vv [km] sd [min] rr [mm]
19.03.2019 03:00:00 2,5 1,6 1,1 1,9 4,6 6,3 14 8 24 13 W 1016,7 16 0 0,0
19.03.2019 02:00:00 3,6 2,0 2,0 2,5 4,7 6,3 18 10 27 15 W 1015,9 19 0 0,0
19.03.2019 01:00:00 4,1 1,9 2,6 3,2 4,8 6,3 17 9 28 15 W 1015,1 22 0 0,0
19.03.2019 00:00:00 4,6 1,9 3,8 3,5 4,9 6,3 18 10 29 16 W 1014,5 24 0 0,0
18.03.2019 23:00:00 4,4 2,0 3,6 3,4 5,1 6,3 20 11 29 16 W 1013,7 25 0 0,0
18.03.2019 22:00:00 3,7 2,3 3,0 3,1 5,3 6,4 15 8 25 14 W 1012,7 28 0 0,0
18.03.2019 21:00:00 3,3 1,9 2,5 3,2 5,6 6,4 18 10 30 16 W 1011,6 48 0 0,0
18.03.2019 20:00:00 3,2 1,7 2,1 4,1 5,8 6,4 19 11 29 16 W 1010,6 68 0 0,1
18.03.2019 19:00:00 3,5 2,1 2,9 4,5 6,1 6,4 19 11 46 25 WNW 1009,5 58 0 2,0
18.03.2019 18:00:00 5,8 2,1 5,3 5,8 6,1 6,4 28 15 51 27 W 1007,8 27 3 0,0
18.03.2019 17:00:00 6,2 2,0 5,8 6,6 6,1 6,4 35 19 67 36 W 1006,8 23 4 0,0
18.03.2019 16:00:00 6,6 2,1 6,5 6,9 6,0 6,4 37 20 58 31 W 1005,6 18 9 0,7
18.03.2019 15:00:00 5,3 2,2 5,5 7,4 5,8 6,3 29 15 71 38 WNW 1004,9 38 7 0,0
18.03.2019 14:00:00 6,7 2,3 8,8 7,2 5,6 6,3 42 23 67 36 W 1003,9 28 8 0,2
18.03.2019 13:00:00 6,9 2,5 7,7 7,5 5,3 6,3 43 23 68 37 W 1003,2 12 15 0,0
18.03.2019 12:00:00 6,7 1,6 7,3 6,1 5,0 6,3 48 26 63 34 WSW 1002,7 18 1 0,0
18.03.2019 11:00:00 5,9 2,4 5,8 5,8 4,8 6,3 32 18 61 33 WSW 1002,1 34 1 0,3
18.03.2019 10:00:00 5,3 2,3 5,0 5,1 4,7 6,3 32 17 58 32 WSW 1001,5 22 1 0,1
18.03.2019 09:00:00 5,0 1,7 4,8 4,2 4,6 6,3 34 18 58 31 WSW 1001,1 20 0 0,0
18.03.2019 08:00:00 4,7 1,3 4,6 3,7 4,6 6,3 27 15 55 30 WSW 1000,6 42 0 0,0
18.03.2019 07:00:00 4,3 1,5 3,4 3,4 4,6 6,3 29 16 49 26 WSW 1000,2 15 0 0,0
18.03.2019 06:00:00 4,5 0,8 4,2 3,3 4,7 6,3 26 14 46 25 SW 1000,0 42 0 0,0
18.03.2019 05:00:00 4,5 0,9 4,2 3,2 4,7 6,3 25 14 48 26 SW 999,9 36 0 0,0
18.03.2019 04:00:00 4,2 0,7 3,6 3,1 4,8 6,3 25 13 49 27 SW 999,7 42 0 0,0
18.03.2019 03:00:00 4,0 0,6 3,7 3,0 4,9 6,3 26 14 55 30 SW 999,9 44 0 0,0
18.03.2019 02:00:00 3,8 0,4 3,4 2,6 5,2 6,3 25 13 47 25 SW 1000,0 47 0 0,0
18.03.2019 01:00:00 3,7 0,4 2,8 2,7 5,4 6,3 23 13 42 23 SW 999,9 55 0 0,0
18.03.2019 00:00:00 3,8 1,5 2,8 2,9 5,7 6,3 22 12 38 20 SW 1000,0 51 0 0,0
17.03.2019 23:00:00 3,9 1,6 2,6 3,2 6,0 6,3 19 10 34 19 SW 999,8 50 0 0,0
17.03.2019 22:00:00 4,4 1,1 3,2 3,6 6,3 6,3 18 10 34 18 SW 999,7 61 0 0,0
17.03.2019 21:00:00 5,2 0,9 4,1 4,2 6,6 6,3 22 12 46 25 WSW 999,4 53 0 0,0
17.03.2019 20:00:00 5,8 1,4 4,5 5,0 6,9 6,3 21 11 40 22 WSW 998,9 52 0 0,0
17.03.2019 19:00:00 6,4 2,2 5,4 5,8 7,1 6,3 18 10 36 19 WSW 998,1 64 0 0,0
17.03.2019 18:00:00 7,2 2,3 6,5 6,8 7,3 6,2 21 11 48 26 WSW 997,5 61 16 0,0
17.03.2019 17:00:00 8,7 2,2 8,7 8,1 7,2 6,2 22 12 38 21 WSW 997,2 36 31 0,0
17.03.2019 16:00:00 8,2 2,7 8,3 8,2 7,1 6,2 22 12 46 25 WSW 996,5 54 4 0,0
17.03.2019 15:00:00 7,2 4,2 7,1 8,0 7,1 6,2 24 13 40 21 W 996,1 45 0 0,0
17.03.2019 14:00:00 7,3 4,2 7,7 8,0 7,0 6,2 23 13 38 21 WSW 995,4 53 0 0,0
17.03.2019 13:00:00 6,6 4,1 6,5 7,9 7,0 6,2 26 14 44 24 W 995,0 54 0 0,1
17.03.2019 12:00:00 6,2 4,5 5,9 8,0 6,9 6,2 23 12 60 33 W 994,3 19 0 0,2
17.03.2019 11:00:00 10,6 5,6 10,9 9,1 6,6 6,2 25 14 52 28 SW 992,8 50 5 0,0
17.03.2019 10:00:00 10,3 5,5 10,7 8,3 6,4 6,2 27 14 53 29 SSW 992,9 45 0 0,0
17.03.2019 09:00:00 9,4 4,9 9,3 7,3 6,3 6,2 24 13 50 27 SSW 993,0 43 1 0,0
17.03.2019 08:00:00 9,0 5,0 8,7 6,6 6,3 6,2 24 13 41 22 SSW 992,7 40 7 0,0
17.03.2019 07:00:00 8,6 5,0 8,2 6,4 6,2 6,2 21 11 40 22 SSW 993,2 39 0 0,0
17.03.2019 06:00:00 8,2 5,1 7,9 6,4 6,2 6,2 21 11 39 21 SSW 993,5 37 0 0,0
17.03.2019 05:00:00 8,3 5,3 7,9 6,3 6,2 6,2 22 12 42 23 SSW 993,9 32 0 0,0
17.03.2019 04:00:00 8,2 5,6 7,7 6,4 6,2 6,2 21 11 37 20 SSW 994,4 29 0 0,0
17.03.2019 03:00:00 8,0 6,0 7,6 6,4 6,2 6,2 19 10 36 19 SSW 995,0 21 0 0,0
17.03.2019 02:00:00 7,8 6,3 7,3 6,4 6,2 6,2 16 9 35 19 SSW 995,6 17 0 0,0
17.03.2019 01:00:00 8,0 6,6 7,6 6,4 6,1 6,2 21 11 33 18 SW 996,1 15 0 0,0
17.03.2019 00:00:00 7,4 7,2 7,1 6,1 6,1 6,2 17 9 31 17 SSW 997,0 6 0 0,3
16.03.2019 23:00:00 6,6 6,5 6,4 5,8 6,2 6,2 16 9 32 17 SSW 997,7 4,2 0 0,4
16.03.2019 22:00:00 5,3 5,2 5,2 5,5 6,3 6,1 16 8 29 15 SSW 998,0 6 0 1,2
16.03.2019 21:00:00 4,5 4,3 4,5 5,4 6,5 6,1 17 9 32 17 S 998,7 4,1 0 1,4
16.03.2019 20:00:00 4,0 3,8 4,0 5,5 6,7 6,1 17 9 32 17 S 999,5 5 0 1,1
16.03.2019 19:00:00 3,9 3,4 3,7 5,8 6,9 6,1 15 8 34 18 S 1000,5 6 0 0,7
16.03.2019 18:00:00 4,2 3,2 3,9 6,4 7,1 6,1 14 7 27 14 S 1001,4 7 0 0,7
16.03.2019 17:00:00 4,6 2,5 4,0 7,0 7,2 6,1 16 8 33 18 SW 1002,1 9 0 0,7
16.03.2019 16:00:00 6,6 1,7 5,0 8,2 7,2 6,1 20 11 39 21 WSW 1002,1 13 0 0,1
16.03.2019 15:00:00 7,8 1,7 8,1 9,0 7,0 6,1 22 12 41 22 WSW 1002,2 33 0 0,0
16.03.2019 14:00:00 7,8 2,3 8,4 9,8 6,7 6,1 29 16 46 25 W 1002,5 26 33 0,0
16.03.2019 13:00:00 7,6 3,1 8,7 9,5 6,3 6,1 31 17 52 28 W 1002,6 24 36 0,0
16.03.2019 12:00:00 7,4 3,1 8,8 9,0 5,8 6,1 31 17 54 29 W 1002,8 16 50 0,0
16.03.2019 11:00:00 7,5 3,2 9,8 7,9 5,4 6,1 39 21 58 32 W 1002,4 8 52 0,0
16.03.2019 10:00:00 6,6 3,1 8,3 6,4 5,1 6,1 35 19 56 30 W 1002,0 14 30 0,0
16.03.2019 09:00:00 6,1 3,3 6,7 5,2 5,0 6,1 35 19 55 30 W 1001,7 21 33 0,0
16.03.2019 08:00:00 5,5 2,9 5,4 4,2 5,0 6,1 32 18 53 29 W 1000,8 14 43 0,0
16.03.2019 07:00:00 4,9 2,6 4,1 3,8 5,1 6,1 31 17 47 26 W 1000,1 22 0 0,0
16.03.2019 06:00:00 4,8 2,4 3,7 4,0 5,2 6,1 29 16 55 30 W 999,0 25 0 0,0
16.03.2019 05:00:00 5,1 2,2 4,8 4,2 5,3 6,1 36 19 56 30 W 998,2 33 0 0,0
16.03.2019 04:00:00 5,1 2,2 4,8 4,3 5,4 6,1 35 19 67 36 W 997,1 34 0 0,0
16.03.2019 03:00:00 5,4 2,1 5,1 4,5 5,5 6,1 42 23 64 35 W 995,9 31 0 0,0
16.03.2019 02:00:00 5,6 2,0 5,2 4,5 5,6 6,1 44 24 81 44 W 994,5 28 0 0,0
16.03.2019 01:00:00 5,7 2,1 4,9 4,7 5,7 6,1 46 25 77 42 W 993,1 29 0 0,0
16.03.2019 00:00:00 5,8 2,5 4,8 4,9 5,8 6,1 45 25 78 42 W 991,5 28 0 0,0
15.03.2019 23:00:00 6,0 2,5 5,7 4,9 5,9 6,1 50 27 84 45 W 989,5 29 0 0,0
15.03.2019 22:00:00 5,7 2,7 4,8 5,0 6,1 6,1 53 29 94 51 W 987,8 26 0 0,1
15.03.2019 21:00:00 6,2 2,5 5,9 5,1 6,2 6,0 52 28 91 49 W 987,1 26 0 0,0
15.03.2019 20:00:00 5,5 2,8 4,8 5,1 6,5 6,0 45 24 74 40 W 987,2 27 0 0,0
15.03.2019 19:00:00 6,9 2,4 6,2 5,5 6,7 6,0 47 25 73 40 W 987,2 30 0 0,0
15.03.2019 18:00:00 7,3 4,4 6,3 6,7 6,8 6,0 39 21 61 33 W 987,2 34 8 1,0
15.03.2019 17:00:00 6,8 5,8 6,4 7,1 6,8 6,0 26 14 64 35 SW 987,9 10 0 1,2
15.03.2019 16:00:00 5,9 5,0 5,6 7,6 6,8 6,0 24 13 47 25 SSW 989,4 4,6 0 2,0
15.03.2019 15:00:00 7,4 4,0 6,7 8,7 6,6 6,0 22 12 39 21 SSW 991,4 13 0 0,0
15.03.2019 14:00:00 8,0 3,7 8,4 9,0 6,3 6,0 22 12 42 23 SW 993,3 25 2 0,0
15.03.2019 13:00:00 8,3 4,4 9,4 8,7 6,0 6,0 17 9 39 21 SW 994,6 33 5 0,0
15.03.2019 12:00:00 7,0 3,3 7,6 7,6 5,8 6,0 27 14 39 21 WSW 995,8 43 2 0,0
15.03.2019 11:00:00 6,3 3,9 6,9 7,2 5,5 6,0 21 11 40 22 W 996,3 39 0 0,0
15.03.2019 10:00:00 5,7 2,1 6,7 6,4 5,4 6,0 27 14 46 25 WNW 996,1 45 14 0,0
15.03.2019 09:00:00 5,5 2,6 6,7 5,7 5,3 6,0 30 16 48 26 W 995,6 27 5 0,0
15.03.2019 08:00:00 4,7 3,4 4,5 5,0 5,3 6,0 32 17 51 27 W 995,4 28 0 0,1
15.03.2019 07:00:00 5,2 4,4 5,0 4,9 5,3 6,0 25 14 45 24 W 994,7 21 0 0,0
15.03.2019 06:00:00 4,9 4,1 4,6 4,9 5,4 6,0 26 14 43 23 WNW 993,9 33 0 0,0
15.03.2019 05:00:00 4,9 4,6 4,8 4,9 5,4 6,0 21 12 33 18 W 993,0 14 0 0,3
15.03.2019 04:00:00 4,9 4,4 4,5 4,9 5,4 6,0 23 12 40 22 W 992,2 23 0 0,5
15.03.2019 03:00:00 5,3 4,2 4,7 5,0 5,5 6,0 25 14 41 22 W 991,7 31 0 0,0
15.03.2019 02:00:00 5,4 4,6 4,9 5,0 5,5 6,0 25 13 37 20 W 991,4 27 0 0,3
15.03.2019 01:00:00 4,7 4,6 4,5 4,8 5,6 6,0 16 9 26 14 W 991,2 4,1 0 0,8
15.03.2019 00:00:00 4,2 3,8 4,0 4,9 5,7 6,0 11 6 20 11 SW 990,8 6 0 0,2
14.03.2019 23:00:00 4,3 3,5 3,9 5,0 5,8 6,0 12 7 28 15 SW 990,4 14 0 0,2
14.03.2019 22:00:00 4,6 3,8 4,3 5,2 5,9 6,0 13 7 21 12 SSW 990,2 11 0 0,0
14.03.2019 21:00:00 4,8 3,8 4,5 5,3 6,1 6,0 10 5 29 15 SSW 989,9 25 0 0,0
14.03.2019 20:00:00 4,9 3,5 4,6 5,6 6,2 6,0 14 8 23 12 SSW 989,8 39 0 0,0
14.03.2019 19:00:00 5,0 3,7 4,5 5,9 6,3 6,0 14 7 27 15 SSW 989,8 42 0 0,0
14.03.2019 18:00:00 5,2 3,8 4,8 6,4 6,4 6,0 13 7 38 20 S 990,0 34 0 0,0
14.03.2019 17:00:00 5,5 3,8 5,1 6,9 6,4 6,0 23 12 41 22 SSW 990,5 36 0 0,1
14.03.2019 16:00:00 5,7 4,2 5,4 7,4 6,4 5,9 18 10 39 21 SSW 991,2 13 0 0,1
14.03.2019 15:00:00 6,2 4,6 5,9 8,0 6,2 5,9 17 9 38 21 SSW 992,3 10 0 0,1
14.03.2019 14:00:00 6,6 4,6 6,5 8,2 6,0 5,9 16 8 47 26 SW 993,3 18 8 0,3
14.03.2019 13:00:00 8,0 4,5 10,3 8,3 5,6 5,9 19 10 42 23 SW 994,2 31 8 0,0
14.03.2019 12:00:00 6,5 4,4 6,9 7,2 5,4 5,9 21 11 45 25 SW 995,4 22 0 0,2
14.03.2019 11:00:00 7,0 3,9 7,8 7,1 5,1 5,9 22 12 41 22 SW 996,1 25 0 0,0
14.03.2019 10:00:00 5,9 3,5 6,1 6,1 4,9 5,9 22 12 40 21 WSW 996,9 20 14 0,0
14.03.2019 09:00:00 6,0 3,1 7,1 5,1 4,8 5,9 23 12 41 22 WSW 997,1 17 31 0,0
14.03.2019 08:00:00 5,0 2,8 4,9 4,0 4,9 5,9 28 15 44 24 W 997,2 16 29 0,0
14.03.2019 07:00:00 4,8 2,4 4,4 4,1 5,0 5,9 27 14 48 26 W 996,8 23 0 0,0
14.03.2019 06:00:00 4,7 2,0 4,0 4,2 5,1 5,9 31 17 51 28 W 996,2 26 0 0,0
14.03.2019 05:00:00 4,9 3,1 4,3 4,6 5,1 5,9 31 17 52 28 W 995,6 27 0 0,2
14.03.2019 04:00:00 4,8 4,0 4,5 4,8 5,1 5,9 35 19 52 28 W 994,6 14 0 0,1
14.03.2019 03:00:00 5,0 4,4 4,7 4,9 5,2 5,9 30 16 48 26 W 993,6 14 0 0,8
14.03.2019 02:00:00 5,1 4,5 4,8 4,8 5,2 5,9 27 14 37 20 W 992,9 5 0 0,4
14.03.2019 01:00:00 5,0 4,2 4,7 4,8 5,3 5,9 18 10 41 22 SW 992,6 15 0 0,0
14.03.2019 00:00:00 4,9 4,0 4,5 4,9 5,3 5,9 23 12 48 26 SW 992,6 14 0 1,0
13.03.2019 23:00:00 5,4 4,0 4,6 4,9 5,4 5,9 22 12 42 23 SSW 992,8 5 0 0,3
13.03.2019 22:00:00 5,9 3,1 5,7 5,0 5,5 5,9 26 14 44 24 SSW 993,3 38 0 0,0
13.03.2019 21:00:00 5,8 3,2 5,6 5,1 5,6 5,9 19 10 48 26 SSW 994,1 51 0 0,0
13.03.2019 20:00:00 6,3 2,7 6,0 5,2 5,7 5,9 26 14 47 25 SSW 994,8 63 0 0,0
13.03.2019 19:00:00 7,1 2,3 6,7 5,4 5,8 5,9 22 12 46 25 SSW 995,0 54 0 0,0
13.03.2019 18:00:00 7,1 2,4 6,5 6,0 5,9 5,9 25 13 49 27 SSW 995,0 59 0 0,0
13.03.2019 17:00:00 8,0 1,9 7,7 6,7 5,9 5,9 24 13 50 27 SSW 995,3 43 0 0,0
13.03.2019 16:00:00 8,4 1,6 8,4 7,3 5,7 5,9 28 15 55 30 SSW 995,7 41 0 0,0
13.03.2019 15:00:00 8,8 1,4 9,0 7,8 5,5 5,9 29 16 58 31 SW 996,2 50 11 0,0
13.03.2019 14:00:00 8,8 1,5 9,5 7,8 5,2 6,0 27 14 55 30 SSW 996,4 20 1 0,0
13.03.2019 13:00:00 8,4 1,3 8,8 8,0 4,8 6,0 27 14 59 32 SW 996,8 41 26 0,0
13.03.2019 12:00:00 7,7 1,5 8,3 6,8 4,5 6,0 28 15 51 28 SW 997,2 19 5 0,0
13.03.2019 11:00:00 6,9 1,2 7,6 6,2 4,2 6,0 29 16 50 27 SW 997,5 27 7 0,0
13.03.2019 10:00:00 6,0 1,1 6,2 4,8 4,0 6,0 28 15 48 26 SW 997,8 29 0 0,0
13.03.2019 09:00:00 5,6 0,8 6,1 3,5 3,9 6,0 26 14 44 24 SW 997,8 17 58 0,0
13.03.2019 08:00:00 4,3 0,8 3,6 2,6 4,1 6,0 21 11 37 20 SW 997,7 28 53 0,0
13.03.2019 07:00:00 4,1 1,6 2,6 3,0 4,2 6,0 23 12 38 20 WSW 997,4 41 0 0,0
13.03.2019 06:00:00 4,3 2,7 3,6 3,6 4,2 6,0 24 13 39 21 WSW 996,9 40 0 0,3
13.03.2019 05:00:00 4,6 2,6 3,7 3,7 4,2 6,0 21 12 43 23 SW 995,9 8 0 0,3
13.03.2019 04:00:00 4,7 2,2 3,6 3,7 4,2 6,0 20 11 46 25 SSW 995,3 18 0 0,5
13.03.2019 03:00:00 4,8 2,0 3,6 3,7 4,2 6,0 21 11 44 24 SSW 995,8 13 0 0,3

tt = Température de l'air
td = dewpoint
tt 5cm = Température de l'air 5cm
tt -5cm = Température de l'air -5cm
tt -20cm = Température de l'air -20cm
tt -100cm = Température de l'air -100cm
ff = Vitesse du vent
fx = gusts
dd = Direction du vent
ppp = reduced air pressure
vv = visibility
sd = Ensoleillement
rr = Quantités de précipitations

stations d'obs. à proximité